This is the latest recevied weather packets stored in our database for station/object W5ADC. If no packets are shown the sender has not sent any weather packets the latest 10 day(s).
| Time | Temp. | Humidity | Pressure | Rain* | Wind** | Luminosity | Snow |
|---|---|---|---|---|---|---|---|
| 1777820655 | 22.22° C | 51% | 1017.5 hPa | 0 mm | - | 468 W/m² | - |
| 1777820351 | 21.67° C | 51% | 1017.5 hPa | 0 mm | - | 451 W/m² | - |
| 1777820050 | 22.22° C | 51% | 1017.6 hPa | 0 mm | - | 435 W/m² | - |
| 1777819746 | 21.67° C | 52% | 1017.6 hPa | 0 mm | - | 420 W/m² | - |
| 1777819444 | 21.11° C | 54% | 1017.5 hPa | 0 mm | - | 404 W/m² | - |
| 1777819142 | 21.11° C | 52% | 1017.5 hPa | 0 mm | - | 390 W/m² | - |
| 1777818838 | 21.11° C | 52% | 1017.5 hPa | 0 mm | - | 375 W/m² | - |
| 1777818534 | 21.11° C | 55% | 1017.4 hPa | 0 mm | - | 358 W/m² | - |
| 1777818232 | 21.11° C | 55% | 1017.4 hPa | 0 mm | - | 338 W/m² | - |
| 1777817927 | 20.56° C | 55% | 1017.5 hPa | 0 mm | - | 323 W/m² | - |
| 1777817625 | 20° C | 56% | 1017.5 hPa | 0 mm | - | 308 W/m² | - |
| 1777817322 | 20° C | 56% | 1017.4 hPa | 0 mm | - | 293 W/m² | - |
| 1777817019 | 20° C | 56% | 1017.3 hPa | 0 mm | - | 277 W/m² | - |
| 1777816715 | 20° C | 58% | 1017.4 hPa | 0 mm | - | 261 W/m² | - |
| 1777816413 | 19.44° C | 57% | 1017.5 hPa | 0 mm | - | 246 W/m² | - |
| 1777816110 | 19.44° C | 58% | 1017.5 hPa | 0 mm | - | 232 W/m² | - |
| 1777815807 | 18.89° C | 60% | 1017.6 hPa | 0 mm | - | 217 W/m² | - |
| 1777815505 | 18.89° C | 60% | 1017.4 hPa | 0 mm | - | 202 W/m² | - |
| 1777815202 | 18.33° C | 61% | 1017.6 hPa | 0 mm | - | 189 W/m² | - |
| 1777814898 | 18.33° C | 62% | 1017.2 hPa | 0 mm | - | 181 W/m² | - |
| 1777814595 | 18.33° C | 62% | 1017.3 hPa | 0 mm | - | 164 W/m² | - |
| 1777814292 | 17.78° C | 63% | 1017.2 hPa | 0 mm | - | 152 W/m² | - |
| 1777813989 | 17.78° C | 64% | 1017.4 hPa | 0 mm | - | 140 W/m² | - |
| 1777813686 | 17.22° C | 65% | 1017.1 hPa | 0 mm | - | 127 W/m² | - |
| 1777813383 | 17.22° C | 66% | 1017.1 hPa | 0 mm | - | 116 W/m² | - |
* Rain latest hour (hover to see other rain measurements)
** Current wind speed in m/s (hover to see current wind gust speed)